STARLINK-31868, 59783

Orbit data source: Space-Track

STARLINK-31868, 59783 is a payload satellite owned by SpaceX/Seattle (US) in LEO that was launched on Sat, 18 May 2024 UTC via an FALCON 9 launch vehicle from the Air Force Eastern Test Range (AFETR). Payload-class satellites include a variety of spacecraft equipped with specific instruments for various scientific and technological missions. These include communications satellites like Starlink; space stations such as the ISS; scientific satellites like the Hubble; Earth observation satellites from companies like Planet Labs, Umbra, and HawkEye 360; GPS; miniature CubeSats for education and research; and military/defense satellites.

Loading next visibility...
Identifier
59783, 2024-093B
Orbit
LEO
Country
Flag of USUS
Related business
Manufacturer
SpaceX/Seattle
Mission
Operational Commercial Communications
Bus & Motor
STARLINK V2M, Unknown motor
Mass
730 kg wet, ~700 kg dry
Launch date (UTC)
2024-05-18 (2 years ago)
Launch vehicle
FALCON 9
Launch site
Air Force Eastern Test Range (AFETR)
Object type
Payload
Rocket body
Debris
Shape & HBR
Box + 2 Pan, 17.7 m
Radar Cross Section
33.884 m², Large (>1 m²)

Expand to show TLE details & history
Last TLE update: 8 hours ago

TLE from 8 hours ago
0 STARLINK-31868
1 59783U 24093B   26036.33573786 -.00003314  00000-0 -11101-3 0  9999
2 59783  43.0045  28.3889 0001395 271.2288  88.8404 15.27567030 97785
Epoch: 2026-02-05T08:03Z
TLE epoch observation values (Epoch: 2026-02-05T08:03:27.751Z)
Latitude
0.00001°
Longitude
132.03384°
Altitude
482.845 km
Speed
7.626 km/s
True Right ascension
01h 53m 33s
True Declination
0° 00' 00"
Sunlit
Object was in daylight at epoch
Visualization orbit readout
Latitude
Unknown
Longitude
Unknown
Altitude
Unknown
Speed
Unknown
Apparent Right ascension
Unknown
Apparent Declination
Unknown
Sunlit
N/A
Visualization observer readout
Local Sidereal Time
18:07:21
Azimuth
Unknown
Elevation
Unknown
Doppler factor
Unknown
Orbital elements
Apogee altitude
485.99 km
Perigee altitude
484.075 km
Semi-major axis
6,863.169 km
Eccentricity
0.00014
Inclination
43.0045°
RAAN
28.3889°
Arg. of periapsis
271.2288°
True anomaly
88.85638°
Mean anomaly
88.8404°
Eccentric anomaly
88.84839°
Mean motion
3.8173 °/min
Orbital period
94.31 mins
BSTAR
-0.00011101
Loading maneuver chart data...
Computing Atmospheric mass density...
Loading historical data...
Loading historical data...
Loading historical data...
Loading historical data...
Loading historical data...
Loading historical data...
Loading historical data...

Documentation

Showing up to 5 results
|